FW8438 Weather Reports


Display with metric or nautical units.
time (UTC)temp
F
wind
direction
speed
MPH
gust
MPH
rain 1hr
in
rain 24hr
in
rain mn
in
humidity
%
barometer
mb
20210919173147 90 180 1.0 5.0 0.00 0.03 0.00 59 1008.6
20210919171624 90 0 0.0 3.0 0.00 0.03 0.00 60 1008.8
20210919170201 88 0 0.0 3.0 0.00 0.03 0.00 63 1009.0
20210919164647 88 89 1.0 5.0 0.00 0.03 0.00 62 1009.2
20210919163145 88 217 0.0 3.0 0.00 0.03 0.00 65 1009.5
20210919161657 88 0 0.0 2.0 0.00 0.03 0.00 64 1009.7
20210919160128 87 0 0.0 3.0 0.00 0.03 0.00 66 1009.8
20210919154646 85 0 1.0 3.0 0.00 0.03 0.00 72 1009.8
20210919153232 82 0 0.0 3.0 0.00 0.03 0.00 77 1009.9
20210919151718 81 190 0.0 3.0 0.00 0.03 0.00 82 1010.0
20210919150138 79 0 0.0 1.0 0.00 0.03 0.00 84 1009.9
20210919144730 79 0 0.0 0.0 0.00 0.03 0.00 86 1009.9
20210919143124 78 193 0.0 2.0 0.00 0.03 0.00 88 1009.7
20210919141707 76 0 0.0 2.0 0.00 0.03 0.00 89 1009.7
20210919140110 75 0 0.0 0.0 0.00 0.03 0.00 89 1009.6
20210919134621 75 0 0.0 0.0 0.00 0.03 0.00 89 1009.6
20210919133140 75 0 0.0 0.0 0.00 0.03 0.00 89 1009.4
20210919131639 74 0 0.0 0.0 0.00 0.03 0.00 89 1009.4
20210919130115 74 0 0.0 0.0 0.00 0.03 0.00 89 1009.2
20210919124636 74 0 0.0 0.0 0.00 0.03 0.00 89 1009.1
20210919123211 74 0 0.0 0.0 0.00 0.03 0.00 88 1008.9
20210919121646 74 0 0.0 0.0 0.00 0.03 0.00 88 1008.8
20210919120148 74 0 0.0 0.0 0.00 0.03 0.00 88 1008.8
20210919114804 74 0 0.0 0.0 0.00 0.03 0.00 88 1008.7
20210919113129 74 0 0.0 0.0 0.00 0.03 0.00 88 1008.7
20210919111646 74 0 0.0 0.0 0.00 0.03 0.00 88 1008.6
20210919110134 74 0 0.0 0.0 0.00 0.03 0.00 88 1008.6
20210919104644 74 0 0.0 0.0 0.00 0.03 0.00 88 1008.5
20210919103104 74 0 0.0 0.0 0.00 0.03 0.00 88 1008.4
20210919101747 74 0 0.0 1.0 0.00 0.03 0.00 88 1008.3
20210919100122 74 0 0.0 1.0 0.00 0.03 0.00 88 1008.3
20210919094637 74 0 0.0 0.0 0.00 0.03 0.00 88 1008.4
20210919093110 74 0 0.0 0.0 0.00 0.03 0.00 87 1008.6
20210919091602 74 0 0.0 0.0 0.00 0.03 0.00 87 1008.6
20210919090151 74 0 0.0 0.0 0.00 0.03 0.00 87 1008.5
20210919084722 74 0 0.0 1.0 0.00 0.03 0.00 87 1008.5
20210919083105 74 0 0.0 1.0 0.00 0.03 0.00 87 1008.5
20210919081620 74 194 1.0 3.0 0.00 0.03 0.00 87 1008.7
20210919080127 74 0 0.0 0.0 0.00 0.03 0.00 86 1008.7
20210919074558 75 0 0.0 0.0 0.00 0.03 0.00 86 1008.8
20210919073133 75 0 0.0 0.0 0.00 0.03 0.00 86 1009.0
20210919071655 75 0 0.0 0.0 0.00 0.03 0.00 86 1009.1
20210919070108 75 0 0.0 0.0 0.00 0.03 0.00 86 1009.0
20210919064644 75 0 0.0 0.0 0.00 0.03 0.00 85 1009.1
20210919063247 75 0 0.0 0.0 0.00 0.03 0.00 85 1009.1
20210919061708 76 0 0.0 0.0 0.00 0.03 0.00 84 1009.2
20210919060144 76 0 0.0 0.0 0.00 0.03 0.00 84 1009.2
20210919054647 76 0 0.0 0.0 0.00 0.03 0.00 84 1009.3
20210919053125 76 0 0.0 0.0 0.00 0.03 0.00 83 1009.4
20210919051618 77 0 0.0 0.0 0.00 0.03 0.00 83 1009.4
20210919050127 77 0 0.0 0.0 0.00 0.03 0.00 82 1009.5
20210919044623 77 0 0.0 0.0 0.00 0.03 0.03 81 1009.5
20210919043144 77 0 0.0 0.0 0.00 0.03 0.03 81 1009.4
20210919041727 77 0 0.0 0.0 0.00 0.03 0.03 81 1009.5
20210919040242 77 0 0.0 0.0 0.00 0.03 0.03 80 1009.4
20210919034708 77 0 0.0 0.0 0.00 0.03 0.03 79 1009.4
20210919033125 78 0 0.0 0.0 0.00 0.03 0.03 78 1009.3
20210919031618 78 0 0.0 0.0 0.00 0.03 0.03 76 1009.2
20210919030312 78 0 0.0 0.0 0.00 0.03 0.03 76 1009.3
20210919024636 79 0 0.0 0.0 0.00 0.03 0.03 75 1009.2
20210919023156 79 0 0.0 0.0 0.00 0.03 0.03 74 1008.9
20210919021650 80 0 0.0 0.0 0.00 0.03 0.03 73 1008.9
20210919020123 80 0 0.0 0.0 0.00 0.03 0.03 72 1008.6
20210919014606 80 0 0.0 0.0 0.00 0.03 0.03 69 1008.3
20210919013135 81 0 0.0 0.0 0.00 0.03 0.03 67 1008.1
20210919011555 82 0 0.0 0.0 0.00 0.03 0.03 66 1008.2
20210919010216 82 0 0.0 0.0 0.00 0.03 0.03 65 1008.1
20210919004616 83 0 0.0 0.0 0.00 0.03 0.03 63 1008.0
20210919003132 84 0 0.0 0.0 0.00 0.03 0.03 63 1008.2
20210919001610 84 0 0.0 0.0 0.00 0.03 0.03 63 1008.0
20210919000110 85 0 0.0 1.0 0.00 0.03 0.03 62 1008.1
20210918234615 85 0 0.0 1.0 0.00 0.03 0.03 61 1008.1
20210918233144 86 205 0.0 3.0 0.00 0.03 0.03 60 1008.0
20210918231558 86 0 0.0 2.0 0.00 0.03 0.03 60 1008.0
20210918230159 87 0 0.0 3.0 0.00 0.03 0.03 60 1007.9
20210918224608 87 0 0.0 3.0 0.00 0.03 0.03 61 1008.0
20210918223240 87 272 0.0 2.0 0.00 0.03 0.03 64 1008.0
20210918221645 86 78 1.0 4.0 0.00 0.03 0.03 64 1008.1
20210918220143 86 65 4.0 9.0 0.00 0.03 0.03 65 1008.0
20210918214707 85 0 1.0 3.0 0.00 0.03 0.03 69 1007.8
20210918213209 85 140 0.0 4.0 0.00 0.03 0.03 66 1007.8
20210918211611 86 0 1.0 5.0 0.00 0.03 0.03 65 1008.2
20210918210113 87 54 1.0 5.0 0.00 0.03 0.03 63 1008.4
20210918204846 90 46 1.0 4.0 0.00 0.03 0.03 60 1008.6
20210918203120 90 202 1.0 5.0 0.00 0.03 0.03 59 1008.6
20210918201624 89 0 1.0 3.0 0.00 0.03 0.03 61 1008.9
20210918200105 88 190 0.0 4.0 0.00 0.03 0.03 67 1009.1
20210918194635 85 70 1.0 3.0 0.00 0.03 0.03 73 1009.3
20210918193116 83 82 0.0 5.0 0.00 0.03 0.03 75 1009.7
20210918191628 83 74 2.0 5.0 0.00 0.03 0.03 74 1010.2
20210918190152 83 85 0.0 2.0 0.03 0.03 0.03 76 1010.5
20210918184624 83 0 0.0 3.0 0.03 0.03 0.03 77 1010.4
20210918183106 84 0 0.0 1.0 0.03 0.03 0.03 72 1010.6
20210918181643 85 0 0.0 5.0 0.03 0.03 0.03 67 1011.0
20210918180204 91 142 1.0 4.0 0.00 0.00 0.00 58 1011.2